This demonstration page uses our WeatherBlox Daily Observations layout. Learn more.

Left ArrowRight Arrow

Hourly Observations for November 7, 2019

Temp ( °F °C ) Dew Point ( °F °C ) Humidity (%) Winds ( mph kmh ) Pressure ( in mb ) Visibility ( mi km ) Precip ( " mm )
12:53 am 00:53 Partly Cloudy 50 10 46 7.8 86 86 ENE 3 6 30.27 1025 10 16 0.00 0.00
1:39 am 01:39 Mostly Cloudy 51 10.6 48 8.9 89 89 Calm 30.28 1025 10 16 0.00 0.00
1:53 am 01:53 Cloudy 54 12.2 48 8.9 80 80 Calm 30.26 1025 10 16 0.00 0.00
2:50 am 02:50 Cloudy 55 13 48 9 77 77 Calm 30.27 1025 10 16 0.00 0.00
2:53 am 02:53 Cloudy 55 12.8 48 8.9 77 77 ENE 3 6 30.25 1025 10 16 0.00 0.00
3:53 am 03:53 Cloudy 55 12.8 49 9.4 80 80 Calm 30.24 1024 10 16 0.00 0.00
4:53 am 04:53 Cloudy 56 13.3 49 9.4 77 77 Calm 30.24 1024 10 16 0.00 0.00
5:53 am 05:53 Cloudy 56 13.3 50 10 81 81 Calm 30.24 1024 10 16 0.00 0.00
6:53 am 06:53 Cloudy 57 13.9 50 10 78 78 Calm 30.25 1024 10 16 0.00 0.00
7:50 am 07:50 Cloudy 57 14 52 11 82 82 Calm 30.26 1025 10 16 0.00 0.00
7:53 am 07:53 Cloudy 57 13.9 51 10.6 81 81 Calm 30.26 1025 10 16 0.00 0.00
8:07 am 08:07 Cloudy 58 14.4 51 10.6 78 78 Calm 30.26 1025 10 16 0.00 0.00
8:53 am 08:53 Cloudy 60 15.6 51 10.6 72 72 ESE 5 7 30.25 1025 10 16 0.00 0.00
9:06 am 09:06 Cloudy 60 15.6 51 10.6 72 72 SE 6 9 30.25 1024 10 16 0.00 0.00
9:53 am 09:53 Cloudy 61 16.1 52 11.1 72 72 VRB 3 6 30.24 1024 10 16 0.00 0.00
10:53 am 10:53 Cloudy 65 18.3 56 13.3 73 73 VRB 7 11 30.23 1024 10 16 0.00 0.00
11:06 am 11:06 Cloudy 65 18.3 56 13.3 73 73 SSE 7 11 30.22 1023 10 16 0.00 0.00
11:53 am 11:53 Cloudy 66 18.9 57 13.9 73 73 SSE 7 11 30.20 1023 10 16 0.00 0.00
12:30 pm 12:30 Cloudy 67 19.4 57 13.9 71 71 SSE 6 9 30.18 1022 10 16 0.00 0.00
12:53 pm 12:53 Cloudy 67 19.4 58 14.4 73 73 VRB 3 6 30.17 1022 10 16 0.00 0.00
1:53 pm 13:53 Mostly Cloudy 68 20 58 14.4 70 70 SE 5 7 30.12 1020 10 16 0.00 0.00
2:08 pm 14:08 Mostly Cloudy 68 20 58 14.4 70 70 SE 7 11 30.11 1020 10 16 0.00 0.00
2:15 pm 14:15 Mostly Cloudy 68 20 59 15 73 73 SSE 7 11 30.11 1020 10 16 0.00 0.00
2:53 pm 14:53 Mostly Cloudy 68 20 59 15 73 73 S 6 9 30.10 1019 10 16 0.00 0.00
3:53 pm 15:53 Mostly Cloudy 67 19.4 59 15 76 76 VRB 3 6 30.08 1019 10 16 0.00 0.00
4:53 pm 16:53 Mostly Cloudy 67 19.4 59 15 76 76 SE 5 7 30.06 1018 10 16 0.00 0.00
5:53 pm 17:53 Mostly Cloudy 66 18.9 60 15.6 81 81 SSE 5 7 30.06 1018 10 16 0.00 0.00
6:53 pm 18:53 Cloudy with Light Rain 65 18.3 60 15.6 84 84 WNW 3 6 30.06 1018 8 13 0.00 0.00
7:02 pm 19:02 Cloudy with Heavy Rain 64 17.8 61 16.1 90 90 NNW 9 15 30.08 1018 3 4 0.10 2.54
7:08 pm 19:08 Cloudy with Heavy Rain 63 17.2 61 16.1 93 93 N 7 11 30.08 1019 2 2 0.24 6.10
7:17 pm 19:17 Cloudy with Heavy Rain 62 16.7 61 16.1 96 96 N 13 20 30.09 1019 2 3 0.36 9.14
7:23 pm 19:23 Cloudy with Heavy Rain 62 16.7 60 15.6 93 93 NNE 10 17 30.10 1019 3 5 0.41 10.41
7:48 pm 19:48 Cloudy with Rain 61 16 57 14 88 88 N 8 13 30.11 1020 6 10 0.49 12.45
7:53 pm 19:53 Cloudy with Rain 60 15.6 57 13.9 90 90 NNE 9 15 30.09 1019 7 11 0.50 12.70
8:53 pm 20:53 Cloudy with Rain 59 15 56 13.3 90 90 VRB 5 7 30.12 1020 7 11 0.07 1.78
9:53 pm 21:53 Cloudy with Light Rain 58 14.4 56 13.3 93 93 NW 5 7 30.12 1020 9 14 0.05 1.27
10:53 pm 22:53 Cloudy with Light Rain 58 14.4 56 13.3 93 93 Calm 30.10 1019 6 10 0.06 1.52
11:30 pm 23:30 Cloudy with Light Rain 57 13.9 55 12.8 93 93 WNW 3 6 30.11 1020 8 13 0.04 1.02
11:43 pm 23:43 Cloudy with Light Rain 57 13.9 54 12.2 90 90 NNW 5 7 30.11 1020 10 16 0.04 1.02

Powered by AerisWeather